AST,Max TemperatureF,Mean TemperatureF,Min TemperatureF,Max Dew PointF,MeanDew PointF,Min DewpointF,Max Humidity, Mean Humidity, Min Humidity, Max Sea Level PressureIn, Mean Sea Level PressureIn, Min Sea Level PressureIn, Max VisibilityMiles, Mean VisibilityMiles, Min VisibilityMiles, Max Wind SpeedMPH, Mean Wind SpeedMPH, Max Gust SpeedMPH,PrecipitationIn, CloudCover, Events, WindDirDegrees
2012-2-1,24,18,12,21,15,5,93,84,73,30.21,30.04,29.82,15,6,0,17,6,18,0.00,8,Snow,89
2012-2-2,26,22,17,25,18,10,93,83,73,30.15,30.01,29.82,15,10,2,21,11,22,0.00,8,Snow,22
2012-2-3,19,14,8,12,11,5,86,77,73,30.17,30.12,30.07,15,10,3,13,8,22,0.00,7,Snow,351
2012-2-4,15,10,6,10,7,5,92,83,73,30.07,30.02,29.97,15,7,2,17,9,28,0.00,6,Snow,313
2012-2-5,12,9,6,9,4,1,85,78,62,29.98,29.94,29.90,15,14,4,13,8,,0.00,4,Snow,280
2012-2-6,33,20,8,27,17,1,86,76,69,29.89,29.71,29.63,15,13,2,14,10,22,0.00,7,Snow,244
2012-2-7,33,25,15,27,17,5,75,68,59,30.02,29.83,29.65,15,15,10,15,10,21,0.00,6,Snow,308
2012-2-8,23,14,6,14,4,-2,79,64,42,30.19,30.11,30.03,15,15,15,15,9,20,0.00,2,Snow,250
2012-2-9,32,24,17,23,19,12,93,82,69,30.09,29.99,29.89,15,15,15,13,8,,0.00,6,,193
2012-2-10,30,24,17,23,18,14,93,78,59,30.13,30.03,29.91,15,15,15,16,7,,0.00,1,,245
2012-2-11,37,32,26,36,31,25,100,92,80,29.99,29.75,29.36,15,7,1,22,10,31,0.00,8,Rain-Snow,157
2012-2-12,24,16,5,23,15,0,100,94,67,29.47,29.25,28.94,15,7,0,33,22,51,0.00,7,Rain-Snow,329
2012-2-13,10,3,-4,3,-5,-13,78,68,48,29.87,29.66,29.49,15,15,15,20,14,32,0.00,2,Snow,268
2012-2-14,26,12,1,19,1,-8,80,64,57,30.22,30.13,29.89,15,15,15,15,7,21,0.00,4,Snow,201
2012-2-15,44,34,24,36,27,19,93,87,66,30.27,30.23,30.20,15,13,1,8,4,,0.00,5,Fog,130
2012-2-16,30,27,24,28,25,23,100,96,93,30.25,30.21,30.14,15,4,0,12,6,,0.00,8,Fog-Snow,6
2012-2-17,32,28,24,27,23,21,100,86,64,30.14,30.00,29.81,15,11,1,8,5,,0.00,7,Snow,101
2012-2-18,32,29,26,32,27,25,100,95,93,29.77,29.62,29.53,15,5,0,15,8,24,0.00,8,Fog-Snow,301
2012-2-19,28,24,21,27,18,12,93,77,64,29.80,29.71,29.62,15,15,12,17,11,23,0.00,3,Snow,290
2012-2-20,19,16,14,14,11,9,86,77,73,30.01,29.89,29.81,15,14,6,13,9,20,0.00,4,Snow,302
2012-2-21,21,16,10,16,10,3,92,74,62,30.19,30.11,30.02,15,15,12,14,9,,0.00,3,Snow,301
2012-2-22,35,24,14,36,26,10,100,92,80,30.02,29.74,29.55,15,7,1,14,7,,0.00,8,Rain-Snow,173
2012-2-23,39,34,30,36,33,30,100,93,81,29.63,29.48,29.14,15,6,0,18,9,25,0.00,7,Fog-Rain-Snow,157
2012-2-24,33,30,26,32,30,25,100,94,86,29.80,29.58,29.15,15,10,0,22,13,30,0.00,7,Snow,321
2012-2-25,39,34,28,36,29,23,93,83,65,29.66,29.04,28.77,15,12,2,31,18,46,0.00,7,Rain-Snow,177
2012-2-26,30,26,21,23,18,14,75,66,59,30.11,29.62,29.05,15,15,7,25,17,37,0.00,5,Snow,305
2012-2-27,21,16,12,12,7,5,79,71,62,30.38,30.31,30.14,15,14,7,15,10,23,0.00,7,Snow,286
2012-2-28,23,18,14,19,15,10,93,84,79,30.29,30.13,30.03,15,4,0,24,13,30,0.00,8,Snow,50
2012-2-29,21,16,10,18,9,3,93,74,54,30.30,30.27,30.22,15,14,5,14,6,20,0.00,4,Snow,301